Time,TemperatureF,DewpointF,PressureIn,WindDirection,WindDirectionDegrees,WindSpeedMPH,WindSpeedGustMPH,Humidity,HourlyPrecipIn,Conditions,Clouds,dailyrainin,SoftwareType,DateUTC
2013-02-11 00:00:00,31.7,22.3,29.98,South,190,19.0,20.0,68,0.00,,,0.04,Wunderground v.1.15,2013-02-11 05:00:00,
2013-02-11 00:06:00,31.7,22.3,29.98,South,183,19.0,28.0,68,0.00,,,0.04,Wunderground v.1.15,2013-02-11 05:06:00,
2013-02-11 00:08:00,31.8,22.4,29.98,South,181,20.0,28.0,68,0.00,,,0.04,Wunderground v.1.15,2013-02-11 05:08:00,
2013-02-11 00:10:00,31.8,22.4,29.98,South,180,20.0,20.0,68,0.00,,,0.04,Wunderground v.1.15,2013-02-11 05:10:00,
2013-02-11 00:16:00,31.7,22.7,29.98,South,185,20.0,28.0,69,0.00,,,0.04,Wunderground v.1.15,2013-02-11 05:16:00,
2013-02-11 00:22:00,31.7,22.3,29.98,South,188,19.0,23.0,68,0.00,,,0.04,Wunderground v.1.15,2013-02-11 05:22:00,
2013-02-11 00:26:00,31.7,22.7,29.98,South,191,19.0,28.0,69,0.00,,,0.04,Wunderground v.1.15,2013-02-11 05:26:00,
2013-02-11 00:32:00,31.7,22.7,29.97,South,180,18.0,28.0,69,0.00,,,0.04,Wunderground v.1.15,2013-02-11 05:32:00,
2013-02-11 00:37:00,31.7,23.0,29.97,South,177,17.0,27.0,70,0.00,,,0.04,weatherlink.com 1.10,2013-02-11 05:37:00,
2013-02-11 00:44:00,31.6,22.9,29.97,South,190,18.0,28.0,70,0.00,,,0.04,Wunderground v.1.15,2013-02-11 05:44:00,
2013-02-11 00:50:00,31.6,22.9,29.97,South,180,18.0,18.0,70,0.00,,,0.04,Wunderground v.1.15,2013-02-11 05:50:00,
2013-02-11 00:56:00,31.7,22.7,29.97,SSW,192,18.0,28.0,69,0.00,,,0.04,Wunderground v.1.15,2013-02-11 05:56:00,
2013-02-11 01:02:00,31.9,22.9,29.97,South,184,18.0,29.0,69,0.00,,,0.00,Wunderground v.1.15,2013-02-11 06:02:00,
2013-02-11 01:08:00,31.9,22.9,29.97,South,184,19.0,29.0,69,0.00,,,0.00,Wunderground v.1.15,2013-02-11 06:08:00,
2013-02-11 01:14:00,32.0,23.0,29.97,SSW,193,18.0,22.0,69,0.00,,,0.00,Wunderground v.1.15,2013-02-11 06:14:00,
2013-02-11 01:20:00,32.0,23.3,29.96,South,191,18.0,29.0,70,0.00,,,0.00,Wunderground v.1.15,2013-02-11 06:20:00,
2013-02-11 01:26:00,32.0,23.3,29.96,South,188,19.0,29.0,70,0.00,,,0.00,Wunderground v.1.15,2013-02-11 06:26:00,
2013-02-11 01:32:00,32.1,23.1,29.96,South,191,18.0,29.0,69,0.00,,,0.00,Wunderground v.1.15,2013-02-11 06:32:00,
2013-02-11 01:38:00,32.1,23.1,29.95,South,179,17.0,29.0,69,0.00,,,0.00,Wunderground v.1.15,2013-02-11 06:38:00,
2013-02-11 01:44:00,32.1,23.1,29.96,South,180,17.0,29.0,69,0.00,,,0.00,Wunderground v.1.15,2013-02-11 06:44:00,
2013-02-11 01:50:00,32.3,23.3,29.95,SSW,198,18.0,29.0,69,0.00,,,0.00,Wunderground v.1.15,2013-02-11 06:50:00,
2013-02-11 01:56:00,32.4,23.7,29.95,South,173,17.0,29.0,70,0.00,,,0.00,Wunderground v.1.15,2013-02-11 06:56:00,
2013-02-11 02:02:00,32.4,23.7,29.94,South,173,15.0,24.0,70,0.00,,,0.00,Wunderground v.1.15,2013-02-11 07:02:00,
2013-02-11 02:08:00,32.5,23.8,29.93,SSW,192,14.0,24.0,70,0.00,,,0.00,Wunderground v.1.15,2013-02-11 07:08:00,
2013-02-11 02:14:00,32.5,24.1,29.93,South,169,14.0,24.0,71,0.00,,,0.00,Wunderground v.1.15,2013-02-11 07:14:00,
2013-02-11 02:20:00,32.5,24.1,29.92,South,171,13.0,13.0,71,0.00,,,0.00,Wunderground v.1.15,2013-02-11 07:20:00,
2013-02-11 02:26:00,32.5,24.1,29.91,South,169,14.0,24.0,71,0.00,,,0.00,Wunderground v.1.15,2013-02-11 07:26:00,
2013-02-11 02:32:00,32.5,24.5,29.90,SSE,149,14.0,24.0,72,0.00,,,0.00,Wunderground v.1.15,2013-02-11 07:32:00,
2013-02-11 02:38:00,32.5,24.5,29.90,SSE,164,14.0,24.0,72,0.00,,,0.00,Wunderground v.1.15,2013-02-11 07:38:00,
2013-02-11 02:44:00,32.6,24.6,29.89,SSE,157,15.0,24.0,72,0.00,,,0.00,Wunderground v.1.15,2013-02-11 07:44:00,
2013-02-11 02:50:00,32.6,24.6,29.89,South,185,14.0,14.0,72,0.00,,,0.00,Wunderground v.1.15,2013-02-11 07:50:00,
2013-02-11 02:58:00,33.0,24.6,29.90,South,181,15.0,24.0,71,0.00,,,0.00,Wunderground v.1.15,2013-02-11 07:58:00,
2013-02-11 03:04:00,33.1,25.1,29.89,South,175,15.0,23.0,72,0.00,,,0.00,Wunderground v.1.15,2013-02-11 08:04:00,
2013-02-11 03:10:00,33.2,24.8,29.88,SSE,153,15.0,15.0,71,0.00,,,0.00,Wunderground v.1.15,2013-02-11 08:10:00,
2013-02-11 03:16:00,33.3,25.2,29.87,SSE,159,16.0,23.0,72,0.00,,,0.00,Wunderground v.1.15,2013-02-11 08:16:00,
2013-02-11 03:22:00,33.4,25.3,29.86,South,187,16.0,20.0,72,0.00,,,0.00,Wunderground v.1.15,2013-02-11 08:22:00,
2013-02-11 03:28:00,33.4,25.7,29.86,South,177,16.0,23.0,73,0.00,,,0.00,Wunderground v.1.15,2013-02-11 08:28:00,
2013-02-11 03:34:00,33.5,26.1,29.86,South,175,17.0,23.0,74,0.00,,,0.00,Wunderground v.1.15,2013-02-11 08:34:00,
2013-02-11 03:40:00,33.5,26.1,29.86,South,171,19.0,23.0,74,0.00,,,0.00,Wunderground v.1.15,2013-02-11 08:40:00,
2013-02-11 03:46:00,33.7,26.3,29.86,SSW,194,20.0,23.0,74,0.00,,,0.00,Wunderground v.1.15,2013-02-11 08:46:00,
2013-02-11 03:52:00,33.7,26.6,29.85,SSW,194,20.0,23.0,75,0.00,,,0.00,Wunderground v.1.15,2013-02-11 08:52:00,
2013-02-11 03:58:00,33.8,27.0,29.85,South,171,21.0,23.0,76,0.00,,,0.00,Wunderground v.1.15,2013-02-11 08:58:00,
2013-02-11 04:04:00,33.8,27.4,29.84,South,174,21.0,29.0,77,0.00,,,0.00,Wunderground v.1.15,2013-02-11 09:04:00,
2013-02-11 04:10:00,33.7,27.3,29.85,SSW,192,18.0,18.0,77,0.00,,,0.00,Wunderground v.1.15,2013-02-11 09:10:00,
2013-02-11 04:16:00,33.7,27.6,29.84,SSE,162,17.0,29.0,78,0.00,,,0.00,Wunderground v.1.15,2013-02-11 09:16:00,
2013-02-11 04:22:00,33.6,27.8,29.83,SSE,162,16.0,29.0,79,0.00,,,0.00,Wunderground v.1.15,2013-02-11 09:22:00,
2013-02-11 04:28:00,33.4,27.9,29.83,SSE,161,15.0,29.0,80,0.00,,,0.00,Wunderground v.1.15,2013-02-11 09:28:00,
2013-02-11 04:34:00,33.4,27.6,29.83,SSW,194,14.0,29.0,79,0.00,,,0.00,Wunderground v.1.15,2013-02-11 09:34:00,
2013-02-11 04:40:00,33.6,27.8,29.82,SSE,153,14.0,29.0,79,0.00,,,0.00,Wunderground v.1.15,2013-02-11 09:40:00,
2013-02-11 04:46:00,33.7,27.6,29.81,SSW,192,14.0,29.0,78,0.00,,,0.00,Wunderground v.1.15,2013-02-11 09:46:00,
2013-02-11 04:52:00,33.8,27.7,29.81,SSE,167,15.0,29.0,78,0.00,,,0.00,Wunderground v.1.15,2013-02-11 09:52:00,
2013-02-11 04:58:00,33.9,27.8,29.80,South,175,16.0,29.0,78,0.00,,,0.00,Wunderground v.1.15,2013-02-11 09:58:00,
2013-02-11 05:04:00,33.8,27.7,29.79,South,182,17.0,25.0,78,0.00,,,0.00,Wunderground v.1.15,2013-02-11 10:04:00,
2013-02-11 05:10:00,33.9,27.8,29.79,South,170,18.0,18.0,78,0.00,,,0.00,Wunderground v.1.15,2013-02-11 10:10:00,
2013-02-11 05:16:00,34.0,28.2,29.78,South,179,18.0,24.0,79,0.00,,,0.00,Wunderground v.1.15,2013-02-11 10:16:00,
2013-02-11 05:22:00,34.0,28.5,29.78,South,178,17.0,22.0,80,0.00,,,0.00,Wunderground v.1.15,2013-02-11 10:22:00,
2013-02-11 05:28:00,34.0,28.2,29.78,SSW,195,19.0,24.0,79,0.00,,,0.00,Wunderground v.1.15,2013-02-11 10:28:00,
2013-02-11 05:34:00,34.1,28.3,29.79,SSW,196,19.0,24.0,79,0.00,,,0.00,Wunderground v.1.15,2013-02-11 10:34:00,
2013-02-11 05:40:00,34.2,28.4,29.79,SSW,194,18.0,24.0,79,0.00,,,0.00,Wunderground v.1.15,2013-02-11 10:40:00,
2013-02-11 05:46:00,34.2,28.4,29.78,South,188,17.0,24.0,79,0.00,,,0.00,Wunderground v.1.15,2013-02-11 10:46:00,
2013-02-11 05:52:00,34.3,28.5,29.77,South,184,16.0,24.0,79,0.00,,,0.00,Wunderground v.1.15,2013-02-11 10:52:00,
2013-02-11 05:58:00,34.2,28.4,29.76,SSW,196,16.0,24.0,79,0.00,,,0.00,Wunderground v.1.15,2013-02-11 10:58:00,
2013-02-11 06:04:00,34.2,28.4,29.76,SSE,161,18.0,25.0,79,0.00,,,0.00,Wunderground v.1.15,2013-02-11 11:04:00,
2013-02-11 06:10:00,34.3,28.5,29.77,South,178,19.0,19.0,79,0.00,,,0.00,Wunderground v.1.15,2013-02-11 11:10:00,
2013-02-11 06:16:00,34.3,28.2,29.77,South,182,19.0,25.0,78,0.00,,,0.00,Wunderground v.1.15,2013-02-11 11:16:00,
2013-02-11 06:22:00,34.4,28.2,29.77,SSW,199,18.0,25.0,78,0.00,,,0.00,Wunderground v.1.15,2013-02-11 11:22:00,
2013-02-11 06:28:00,34.6,28.4,29.77,SSW,192,16.0,25.0,78,0.00,,,0.00,Wunderground v.1.15,2013-02-11 11:28:00,
2013-02-11 06:34:00,34.7,28.9,29.76,SSW,192,17.0,25.0,79,0.00,,,0.00,Wunderground v.1.15,2013-02-11 11:34:00,
2013-02-11 06:40:00,34.5,29.6,29.76,SW,214,17.0,17.0,82,0.00,,,0.00,Wunderground v.1.15,2013-02-11 11:40:00,
2013-02-11 06:46:00,34.3,30.3,29.76,SSE,161,17.0,25.0,85,0.00,,,0.00,Wunderground v.1.15,2013-02-11 11:46:00,
2013-02-11 06:52:00,34.2,30.7,29.76,South,182,17.0,25.0,87,0.00,,,0.00,Wunderground v.1.15,2013-02-11 11:52:00,
2013-02-11 06:57:00,34.1,31.0,29.76,SSW,198,22.0,22.0,88,0.00,,,0.00,weatherlink.com 1.10,2013-02-11 11:57:00,
2013-02-11 07:04:00,33.9,31.3,29.76,SSE,163,15.0,28.0,90,0.00,,,0.00,Wunderground v.1.15,2013-02-11 12:04:00,
2013-02-11 07:10:00,33.9,31.6,29.76,South,177,14.0,14.0,91,0.00,,,0.00,Wunderground v.1.15,2013-02-11 12:10:00,
2013-02-11 07:16:00,33.8,31.7,29.76,South,191,14.0,28.0,92,0.00,,,0.00,Wunderground v.1.15,2013-02-11 12:16:00,
2013-02-11 07:22:00,33.7,31.9,29.75,South,184,13.0,28.0,93,0.00,,,0.00,Wunderground v.1.15,2013-02-11 12:22:00,
2013-02-11 07:28:00,33.7,32.2,29.75,South,184,13.0,28.0,94,0.00,,,0.00,Wunderground v.1.15,2013-02-11 12:28:00,
2013-02-11 07:34:00,33.8,32.3,29.75,SSW,198,13.0,28.0,94,0.00,,,0.00,Wunderground v.1.15,2013-02-11 12:34:00,
2013-02-11 07:40:00,33.8,32.3,29.75,SSW,196,13.0,28.0,94,0.00,,,0.00,Wunderground v.1.15,2013-02-11 12:40:00,
2013-02-11 07:46:00,33.8,32.3,29.75,SSW,200,14.0,28.0,94,0.00,,,0.00,Wunderground v.1.15,2013-02-11 12:46:00,
2013-02-11 07:52:00,33.9,32.4,29.74,South,190,14.0,28.0,94,0.00,,,0.00,Wunderground v.1.15,2013-02-11 12:52:00,
2013-02-11 07:57:00,33.9,32.0,29.74,South,183,14.0,17.0,94,0.00,,,0.00,weatherlink.com 1.10,2013-02-11 12:57:00,
2013-02-11 08:04:00,33.9,32.4,29.74,South,173,13.0,22.0,94,0.00,,,0.00,Wunderground v.1.15,2013-02-11 13:04:00,
2013-02-11 08:10:00,34.0,32.7,29.75,SSW,196,13.0,22.0,95,0.00,,,0.00,Wunderground v.1.15,2013-02-11 13:10:00,
2013-02-11 08:16:00,34.1,32.8,29.74,SSW,192,13.0,22.0,95,0.00,,,0.00,Wunderground v.1.15,2013-02-11 13:16:00,
2013-02-11 08:22:00,34.2,32.9,29.74,South,171,12.0,22.0,95,0.00,,,0.00,Wunderground v.1.15,2013-02-11 13:22:00,
2013-02-11 08:27:00,34.3,33.0,29.74,South,190,10.0,19.0,95,0.00,,,0.00,weatherlink.com 1.10,2013-02-11 13:27:00,
2013-02-11 08:34:00,34.4,33.1,29.73,South,185,11.0,22.0,95,0.00,,,0.00,Wunderground v.1.15,2013-02-11 13:34:00,
2013-02-11 08:40:00,34.5,33.2,29.74,South,190,11.0,22.0,95,0.00,,,0.00,Wunderground v.1.15,2013-02-11 13:40:00,
2013-02-11 08:46:00,34.6,33.3,29.75,South,177,12.0,22.0,95,0.00,,,0.00,Wunderground v.1.15,2013-02-11 13:46:00,
2013-02-11 08:52:00,34.8,33.5,29.74,SSW,197,11.0,22.0,95,0.00,,,0.01,Wunderground v.1.15,2013-02-11 13:52:00,
2013-02-11 08:57:00,34.9,34.0,29.73,South,179,9.0,16.0,95,0.01,,,0.01,weatherlink.com 1.10,2013-02-11 13:57:00,
2013-02-11 09:04:00,35.1,33.8,29.73,South,170,13.0,18.0,95,0.00,,,0.01,Wunderground v.1.15,2013-02-11 14:04:00,
2013-02-11 09:10:00,35.5,34.2,29.72,SSW,197,15.0,15.0,95,0.00,,,0.01,Wunderground v.1.15,2013-02-11 14:10:00,
2013-02-11 09:16:00,35.6,34.0,29.73,South,183,16.0,20.0,94,0.00,,,0.01,Wunderground v.1.15,2013-02-11 14:16:00,
2013-02-11 09:22:00,35.8,34.2,29.73,SSW,211,14.0,17.0,94,0.00,,,0.01,Wunderground v.1.15,2013-02-11 14:22:00,
2013-02-11 09:27:00,35.9,34.0,29.72,SSW,196,15.0,22.0,94,0.01,,,0.01,weatherlink.com 1.10,2013-02-11 14:27:00,
2013-02-11 09:34:00,36.0,34.4,29.71,SSW,195,16.0,18.0,94,0.00,,,0.01,Wunderground v.1.15,2013-02-11 14:34:00,
2013-02-11 09:40:00,36.2,34.4,29.71,South,188,17.0,17.0,93,0.00,,,0.01,Wunderground v.1.15,2013-02-11 14:40:00,
2013-02-11 09:46:00,36.4,34.6,29.70,SSW,202,17.0,18.0,93,0.00,,,0.01,Wunderground v.1.15,2013-02-11 14:46:00,
2013-02-11 09:52:00,36.5,34.4,29.70,South,184,16.0,18.0,92,0.00,,,0.01,Wunderground v.1.15,2013-02-11 14:52:00,
2013-02-11 09:58:00,36.6,34.5,29.69,South,182,15.0,18.0,92,0.00,,,0.01,Wunderground v.1.15,2013-02-11 14:58:00,
2013-02-11 10:04:00,36.7,34.6,29.68,South,188,22.0,24.0,92,0.00,,,0.01,Wunderground v.1.15,2013-02-11 15:04:00,
2013-02-11 10:10:00,36.7,34.6,29.69,South,180,18.0,24.0,92,0.00,,,0.01,Wunderground v.1.15,2013-02-11 15:10:00,
2013-02-11 10:16:00,36.7,34.6,29.69,South,180,16.0,24.0,92,0.00,,,0.01,Wunderground v.1.15,2013-02-11 15:16:00,
2013-02-11 10:22:00,36.7,34.6,29.68,South,182,16.0,24.0,92,0.00,,,0.01,Wunderground v.1.15,2013-02-11 15:22:00,
2013-02-11 10:28:00,36.8,34.7,29.67,SSE,162,16.0,24.0,92,0.00,,,0.01,Wunderground v.1.15,2013-02-11 15:28:00,
2013-02-11 10:34:00,36.8,34.7,29.68,South,177,17.0,24.0,92,0.00,,,0.01,Wunderground v.1.15,2013-02-11 15:34:00,
2013-02-11 10:40:00,36.7,34.6,29.67,South,175,16.0,24.0,92,0.00,,,0.01,Wunderground v.1.15,2013-02-11 15:40:00,
2013-02-11 10:46:00,36.7,34.9,29.68,South,175,14.0,24.0,93,0.00,,,0.01,Wunderground v.1.15,2013-02-11 15:46:00,
2013-02-11 10:52:00,36.7,34.6,29.68,South,178,16.0,24.0,92,0.00,,,0.01,Wunderground v.1.15,2013-02-11 15:52:00,
2013-02-11 10:58:00,36.8,35.0,29.67,South,185,15.0,24.0,93,0.00,,,0.01,Wunderground v.1.15,2013-02-11 15:58:00,
2013-02-11 11:04:00,36.8,35.0,29.67,South,171,13.0,23.0,93,0.00,,,0.01,Wunderground v.1.15,2013-02-11 16:04:00,
2013-02-11 11:10:00,36.9,35.1,29.67,SSE,147,14.0,23.0,93,0.00,,,0.01,Wunderground v.1.15,2013-02-11 16:10:00,
2013-02-11 11:16:00,36.9,35.1,29.68,South,188,15.0,23.0,93,0.00,,,0.01,Wunderground v.1.15,2013-02-11 16:16:00,
2013-02-11 11:22:00,37.0,35.2,29.67,South,180,15.0,23.0,93,0.00,,,0.01,Wunderground v.1.15,2013-02-11 16:22:00,
2013-02-11 11:28:00,37.0,35.2,29.67,South,187,14.0,23.0,93,0.00,,,0.02,Wunderground v.1.15,2013-02-11 16:28:00,
2013-02-11 11:34:00,37.3,35.5,29.66,South,185,14.0,23.0,93,0.00,,,0.02,Wunderground v.1.15,2013-02-11 16:34:00,
2013-02-11 11:40:00,37.6,35.8,29.66,South,177,14.0,14.0,93,0.00,,,0.02,Wunderground v.1.15,2013-02-11 16:40:00,
2013-02-11 11:46:00,37.9,35.8,29.65,South,180,14.0,23.0,92,0.00,,,0.02,Wunderground v.1.15,2013-02-11 16:46:00,
2013-02-11 11:52:00,38.1,36.0,29.64,South,174,14.0,15.0,92,0.00,,,0.02,Wunderground v.1.15,2013-02-11 16:52:00,
2013-02-11 11:58:00,38.5,36.1,29.62,South,181,14.0,23.0,91,0.00,,,0.02,Wunderground v.1.15,2013-02-11 16:58:00,
2013-02-11 12:04:00,38.8,36.4,29.61,South,178,14.0,22.0,91,0.00,,,0.02,Wunderground v.1.15,2013-02-11 17:04:00,
2013-02-11 12:10:00,39.1,36.4,29.62,South,186,14.0,22.0,90,0.00,,,0.02,Wunderground v.1.15,2013-02-11 17:10:00,
2013-02-11 12:15:00,39.4,37.0,29.61,South,187,16.0,22.0,90,0.01,,,0.02,weatherlink.com 1.10,2013-02-11 17:15:00,
2013-02-11 12:20:00,39.6,36.6,29.61,SSW,193,16.0,22.0,89,0.00,,,0.02,Wunderground v.1.15,2013-02-11 17:20:00,
2013-02-11 12:26:00,39.6,36.6,29.60,South,184,18.0,22.0,89,0.00,,,0.02,Wunderground v.1.15,2013-02-11 17:26:00,
2013-02-11 12:32:00,39.4,36.4,29.61,SW,220,17.0,22.0,89,0.00,,,0.02,Wunderground v.1.15,2013-02-11 17:32:00,
2013-02-11 12:38:00,39.3,36.3,29.60,South,185,16.0,22.0,89,0.00,,,0.02,Wunderground v.1.15,2013-02-11 17:38:00,
2013-02-11 12:44:00,39.2,36.5,29.60,South,190,15.0,22.0,90,0.00,,,0.02,Wunderground v.1.15,2013-02-11 17:44:00,
2013-02-11 12:50:00,39.4,36.7,29.59,SSE,165,13.0,13.0,90,0.00,,,0.02,Wunderground v.1.15,2013-02-11 17:50:00,
2013-02-11 12:56:00,40.0,37.0,29.58,SSE,163,12.0,22.0,89,0.00,,,0.02,Wunderground v.1.15,2013-02-11 17:56:00,
2013-02-11 13:02:00,40.0,36.7,29.57,SSE,155,12.0,12.0,88,0.00,,,0.02,Wunderground v.1.15,2013-02-11 18:02:00,
2013-02-11 13:08:00,40.0,37.0,29.57,SSE,157,11.0,21.0,89,0.00,,,0.02,Wunderground v.1.15,2013-02-11 18:08:00,
2013-02-11 13:14:00,40.2,37.2,29.56,SSE,153,11.0,21.0,89,0.00,,,0.02,Wunderground v.1.15,2013-02-11 18:14:00,
2013-02-11 13:20:00,40.3,37.0,29.56,South,174,11.0,11.0,88,0.00,,,0.02,Wunderground v.1.15,2013-02-11 18:20:00,
2013-02-11 13:28:00,40.7,37.4,29.56,SE,143,10.0,21.0,88,0.00,,,0.02,Wunderground v.1.15,2013-02-11 18:28:00,
2013-02-11 13:34:00,41.0,37.7,29.55,South,180,10.0,21.0,88,0.00,,,0.02,Wunderground v.1.15,2013-02-11 18:34:00,
2013-02-11 13:40:00,41.4,37.8,29.55,South,178,10.0,10.0,87,0.00,,,0.02,Wunderground v.1.15,2013-02-11 18:40:00,
2013-02-11 13:46:00,41.8,38.2,29.55,SSE,157,10.0,21.0,87,0.00,,,0.02,Wunderground v.1.15,2013-02-11 18:46:00,
2013-02-11 13:52:00,41.9,37.7,29.55,SSE,158,10.0,21.0,85,0.00,,,0.02,Wunderground v.1.15,2013-02-11 18:52:00,
2013-02-11 13:58:00,41.7,37.8,29.54,SSE,153,10.0,21.0,86,0.00,,,0.02,Wunderground v.1.15,2013-02-11 18:58:00,
2013-02-11 14:04:00,41.5,37.6,29.54,SE,144,11.0,18.0,86,0.00,,,0.02,Wunderground v.1.15,2013-02-11 19:04:00,
2013-02-11 14:10:00,41.4,37.8,29.53,SSE,167,11.0,18.0,87,0.00,,,0.02,Wunderground v.1.15,2013-02-11 19:10:00,
2013-02-11 14:16:00,41.5,37.6,29.52,SSE,159,11.0,18.0,86,0.00,,,0.02,Wunderground v.1.15,2013-02-11 19:16:00,
2013-02-11 14:22:00,41.8,38.2,29.53,SSE,166,10.0,18.0,87,0.00,,,0.02,Wunderground v.1.15,2013-02-11 19:22:00,
2013-02-11 14:28:00,42.3,38.4,29.52,South,180,11.0,18.0,86,0.00,,,0.02,Wunderground v.1.15,2013-02-11 19:28:00,
2013-02-11 14:34:00,42.8,38.6,29.51,South,169,10.0,18.0,85,0.00,,,0.02,Wunderground v.1.15,2013-02-11 19:34:00,
2013-02-11 14:40:00,42.9,38.4,29.51,South,172,11.0,18.0,84,0.00,,,0.02,Wunderground v.1.15,2013-02-11 19:40:00,
2013-02-11 14:46:00,42.4,38.2,29.51,South,170,13.0,18.0,85,0.00,,,0.02,Wunderground v.1.15,2013-02-11 19:46:00,
2013-02-11 14:52:00,42.2,38.3,29.51,South,175,12.0,18.0,86,0.00,,,0.02,Wunderground v.1.15,2013-02-11 19:52:00,
2013-02-11 14:58:00,42.0,38.1,29.51,South,178,10.0,18.0,86,0.00,,,0.02,Wunderground v.1.15,2013-02-11 19:58:00,
2013-02-11 15:04:00,42.3,38.7,29.51,South,184,10.0,22.0,87,0.00,,,0.02,Wunderground v.1.15,2013-02-11 20:04:00,
2013-02-11 15:10:00,43.1,39.2,29.50,South,190,12.0,12.0,86,0.00,,,0.02,Wunderground v.1.15,2013-02-11 20:10:00,
2013-02-11 15:16:00,42.6,38.1,29.50,SSW,194,13.0,22.0,84,0.00,,,0.02,Wunderground v.1.15,2013-02-11 20:16:00,
2013-02-11 15:22:00,41.9,38.0,29.50,South,174,13.0,22.0,86,0.00,,,0.02,Wunderground v.1.15,2013-02-11 20:22:00,
2013-02-11 15:28:00,41.4,37.8,29.50,South,177,13.0,22.0,87,0.00,,,0.02,Wunderground v.1.15,2013-02-11 20:28:00,
2013-02-11 15:34:00,41.2,37.9,29.49,South,177,13.0,22.0,88,0.00,,,0.02,Wunderground v.1.15,2013-02-11 20:34:00,
2013-02-11 15:40:00,41.1,38.1,29.50,SSW,193,13.0,13.0,89,0.00,,,0.02,Wunderground v.1.15,2013-02-11 20:40:00,
2013-02-11 15:46:00,41.0,38.0,29.51,SSW,202,11.0,22.0,89,0.00,,,0.02,Wunderground v.1.15,2013-02-11 20:46:00,
2013-02-11 15:52:00,40.8,38.1,29.51,South,190,9.0,22.0,90,0.00,,,0.02,Wunderground v.1.15,2013-02-11 20:52:00,
2013-02-11 15:58:00,40.6,38.2,29.52,SSW,194,9.0,22.0,91,0.00,,,0.02,Wunderground v.1.15,2013-02-11 20:58:00,
2013-02-11 16:04:00,40.4,38.3,29.54,NNW,339,5.0,21.0,92,0.00,,,0.03,Wunderground v.1.15,2013-02-11 21:04:00,
2013-02-11 16:10:00,39.7,37.8,29.54,WNW,298,5.0,5.0,93,0.00,,,0.03,Wunderground v.1.15,2013-02-11 21:10:00,
2013-02-11 16:16:00,39.6,38.0,29.55,NW,306,6.0,21.0,94,0.00,,,0.03,Wunderground v.1.15,2013-02-11 21:16:00,
2013-02-11 16:22:00,39.1,37.5,29.55,NW,325,7.0,21.0,94,0.00,,,0.03,Wunderground v.1.15,2013-02-11 21:22:00,
2013-02-11 16:28:00,38.7,37.4,29.54,NW,307,5.0,21.0,95,0.00,,,0.03,Wunderground v.1.15,2013-02-11 21:28:00,
2013-02-11 16:34:00,38.3,37.0,29.54,NW,321,4.0,21.0,95,0.00,,,0.03,Wunderground v.1.15,2013-02-11 21:34:00,
2013-02-11 16:40:00,38.0,37.0,29.55,NNW,338,4.0,21.0,96,0.00,,,0.03,Wunderground v.1.15,2013-02-11 21:40:00,
2013-02-11 16:46:00,37.7,36.7,29.55,NNW,335,5.0,21.0,96,0.00,,,0.03,Wunderground v.1.15,2013-02-11 21:46:00,
2013-02-11 16:52:00,37.4,36.4,29.55,NW,313,5.0,21.0,96,0.00,,,0.03,Wunderground v.1.15,2013-02-11 21:52:00,
2013-02-11 16:58:00,37.2,35.9,29.56,NW,315,6.0,21.0,95,0.00,,,0.03,Wunderground v.1.15,2013-02-11 21:58:00,
2013-02-11 17:04:00,37.1,35.8,29.57,NW,320,7.0,14.0,95,0.00,,,0.03,Wunderground v.1.15,2013-02-11 22:04:00,
2013-02-11 17:10:00,37.0,35.4,29.56,NW,309,9.0,9.0,94,0.00,,,0.03,Wunderground v.1.15,2013-02-11 22:10:00,
2013-02-11 17:16:00,36.9,35.3,29.57,NW,318,9.0,11.0,94,0.00,,,0.03,Wunderground v.1.15,2013-02-11 22:16:00,
2013-02-11 17:22:00,36.9,35.3,29.57,NW,314,9.0,11.0,94,0.00,,,0.03,Wunderground v.1.15,2013-02-11 22:22:00,
2013-02-11 17:28:00,36.7,35.1,29.58,NNW,346,9.0,13.0,94,0.00,,,0.03,Wunderground v.1.15,2013-02-11 22:28:00,
2013-02-11 17:34:00,36.3,34.7,29.58,NW,309,9.0,11.0,94,0.00,,,0.03,Wunderground v.1.15,2013-02-11 22:34:00,
2013-02-11 17:40:00,36.0,34.7,29.58,NW,311,8.0,11.0,95,0.00,,,0.03,Wunderground v.1.15,2013-02-11 22:40:00,
2013-02-11 17:46:00,35.9,34.6,29.59,NW,309,9.0,20.0,95,0.00,,,0.03,Wunderground v.1.15,2013-02-11 22:46:00,
2013-02-11 17:52:00,35.6,34.3,29.59,NW,321,12.0,12.0,95,0.00,,,0.03,Wunderground v.1.15,2013-02-11 22:52:00,
2013-02-11 17:58:00,35.3,34.0,29.60,NNW,332,13.0,16.0,95,0.00,,,0.03,Wunderground v.1.15,2013-02-11 22:58:00,
2013-02-11 18:03:00,35.2,34.0,29.60,WNW,288,5.0,19.0,95,0.00,,,0.03,weatherlink.com 1.10,2013-02-11 23:03:00,
2013-02-11 18:10:00,35.1,33.8,29.60,NW,315,6.0,22.0,95,0.00,,,0.03,Wunderground v.1.15,2013-02-11 23:10:00,
2013-02-11 18:16:00,35.0,34.0,29.60,NW,324,6.0,22.0,96,0.00,,,0.03,Wunderground v.1.15,2013-02-11 23:16:00,
2013-02-11 18:22:00,35.0,33.7,29.60,NW,317,7.0,7.0,95,0.00,,,0.03,Wunderground v.1.15,2013-02-11 23:22:00,
2013-02-11 18:28:00,34.8,33.5,29.61,NW,309,6.0,22.0,95,0.00,,,0.03,Wunderground v.1.15,2013-02-11 23:28:00,
2013-02-11 18:33:00,34.8,33.0,29.61,NW,317,3.0,9.0,94,0.00,,,0.03,weatherlink.com 1.10,2013-02-11 23:33:00,
2013-02-11 18:40:00,34.7,33.2,29.60,NNW,331,2.0,2.0,94,0.00,,,0.03,Wunderground v.1.15,2013-02-11 23:40:00,
2013-02-11 18:46:00,34.7,33.4,29.61,WSW,242,1.0,22.0,95,0.00,,,0.03,Wunderground v.1.15,2013-02-11 23:46:00,
2013-02-11 18:52:00,34.7,33.4,29.60,WSW,242,1.0,22.0,95,0.00,,,0.03,Wunderground v.1.15,2013-02-11 23:52:00,
2013-02-11 18:58:00,34.6,33.3,29.61,South,181,0.0,22.0,95,0.00,,,0.03,Wunderground v.1.15,2013-02-11 23:58:00,
2013-02-11 19:03:00,34.5,33.0,29.60,WSW,257,2.0,4.0,95,0.00,,,0.03,weatherlink.com 1.10,2013-02-12 00:03:00,
2013-02-11 19:10:00,34.4,33.1,29.61,WSW,240,2.0,2.0,95,0.00,,,0.03,Wunderground v.1.15,2013-02-12 00:10:00,
2013-02-11 19:16:00,34.3,33.0,29.61,SW,216,2.0,8.0,95,0.00,,,0.03,Wunderground v.1.15,2013-02-12 00:16:00,
2013-02-11 19:22:00,34.3,33.0,29.61,SW,225,2.0,8.0,95,0.00,,,0.03,Wunderground v.1.15,2013-02-12 00:22:00,
2013-02-11 19:28:00,34.3,33.0,29.61,WSW,253,2.0,8.0,95,0.00,,,0.03,Wunderground v.1.15,2013-02-12 00:28:00,
2013-02-11 19:34:00,34.3,33.0,29.61,WSW,248,3.0,8.0,95,0.00,,,0.03,Wunderground v.1.15,2013-02-12 00:34:00,
2013-02-11 19:40:00,34.4,33.1,29.61,SSW,212,3.0,8.0,95,0.00,,,0.03,Wunderground v.1.15,2013-02-12 00:40:00,
2013-02-11 19:46:00,34.6,32.8,29.61,WNW,295,3.0,8.0,93,0.00,,,0.03,Wunderground v.1.15,2013-02-12 00:46:00,
2013-02-11 19:52:00,34.8,32.7,29.62,West,277,4.0,8.0,92,0.00,,,0.03,Wunderground v.1.15,2013-02-12 00:52:00,
2013-02-11 19:58:00,35.0,32.4,29.61,WNW,288,5.0,8.0,90,0.00,,,0.03,Wunderground v.1.15,2013-02-12 00:58:00,
2013-02-11 20:04:00,35.0,32.4,29.62,WSW,246,5.0,7.0,90,0.00,,,0.03,Wunderground v.1.15,2013-02-12 01:04:00,
2013-02-11 20:10:00,35.1,32.2,29.62,WNW,292,5.0,5.0,89,0.00,,,0.03,Wunderground v.1.15,2013-02-12 01:10:00,
2013-02-11 20:16:00,35.1,32.2,29.62,WNW,295,5.0,7.0,89,0.00,,,0.03,Wunderground v.1.15,2013-02-12 01:16:00,
2013-02-11 20:22:00,35.3,31.8,29.63,WNW,283,6.0,9.0,87,0.00,,,0.03,Wunderground v.1.15,2013-02-12 01:22:00,
2013-02-11 20:28:00,35.6,30.6,29.62,WNW,302,10.0,16.0,82,0.00,,,0.03,Wunderground v.1.15,2013-02-12 01:28:00,
2013-02-11 20:34:00,35.7,30.4,29.61,West,267,13.0,13.0,81,0.00,,,0.03,Wunderground v.1.15,2013-02-12 01:34:00,
2013-02-11 20:40:00,35.7,30.1,29.61,West,275,14.0,14.0,80,0.00,,,0.03,Wunderground v.1.15,2013-02-12 01:40:00,
2013-02-11 20:48:00,35.7,30.1,29.60,West,281,13.0,14.0,80,0.00,,,0.03,Wunderground v.1.15,2013-02-12 01:48:00,
2013-02-11 20:54:00,35.5,30.2,29.60,NW,306,12.0,15.0,81,0.00,,,0.03,Wunderground v.1.15,2013-02-12 01:54:00,
2013-02-11 21:00:00,35.4,30.1,29.60,WNW,287,12.0,15.0,81,0.00,,,0.03,Wunderground v.1.15,2013-02-12 02:00:00,
2013-02-11 21:06:00,35.6,30.0,29.60,West,276,12.0,25.0,80,0.00,,,0.03,Wunderground v.1.15,2013-02-12 02:06:00,
2013-02-11 21:12:00,35.5,29.9,29.60,WNW,286,13.0,25.0,80,0.00,,,0.03,Wunderground v.1.15,2013-02-12 02:12:00,
2013-02-11 21:18:00,35.6,29.7,29.59,NW,305,14.0,25.0,79,0.00,,,0.04,Wunderground v.1.15,2013-02-12 02:18:00,
2013-02-11 21:24:00,35.6,29.4,29.59,West,277,14.0,25.0,78,0.00,,,0.04,Wunderground v.1.15,2013-02-12 02:24:00,
2013-02-11 21:30:00,35.6,29.7,29.60,WNW,295,14.0,14.0,79,0.00,,,0.04,Wunderground v.1.15,2013-02-12 02:30:00,
2013-02-11 21:35:00,35.6,29.0,29.59,NW,306,10.0,24.0,78,0.01,,,0.04,weatherlink.com 1.10,2013-02-12 02:35:00,
2013-02-11 21:40:00,35.6,29.4,29.59,West,274,13.0,13.0,78,0.00,,,0.04,Wunderground v.1.15,2013-02-12 02:40:00,
2013-02-11 21:46:00,35.5,29.3,29.59,West,269,15.0,25.0,78,0.00,,,0.04,Wunderground v.1.15,2013-02-12 02:46:00,
2013-02-11 21:52:00,35.3,29.1,29.58,WNW,286,14.0,25.0,78,0.00,,,0.04,Wunderground v.1.15,2013-02-12 02:52:00,
2013-02-11 21:58:00,35.3,29.4,29.59,NW,304,13.0,25.0,79,0.00,,,0.04,Wunderground v.1.15,2013-02-12 02:58:00,
2013-02-11 22:04:00,35.5,29.0,29.58,West,273,14.0,25.0,77,0.00,,,0.04,Wunderground v.1.15,2013-02-12 03:04:00,
2013-02-11 22:10:00,35.3,29.1,29.59,WNW,284,12.0,25.0,78,0.00,,,0.04,Wunderground v.1.15,2013-02-12 03:10:00,
2013-02-11 22:16:00,35.2,29.0,29.59,WNW,287,10.0,25.0,78,0.00,,,0.04,Wunderground v.1.15,2013-02-12 03:16:00,
2013-02-11 22:22:00,35.3,29.1,29.59,WNW,298,9.0,25.0,78,0.00,,,0.04,Wunderground v.1.15,2013-02-12 03:22:00,
2013-02-11 22:28:00,35.4,29.2,29.60,WNW,296,10.0,25.0,78,0.00,,,0.04,Wunderground v.1.15,2013-02-12 03:28:00,
2013-02-11 22:34:00,35.5,29.3,29.60,NW,310,9.0,25.0,78,0.00,,,0.04,Wunderground v.1.15,2013-02-12 03:34:00,
2013-02-11 22:40:00,35.4,29.2,29.61,West,276,7.0,25.0,78,0.00,,,0.04,Wunderground v.1.15,2013-02-12 03:40:00,
2013-02-11 22:46:00,35.3,29.4,29.60,West,281,6.0,25.0,79,0.00,,,0.04,Wunderground v.1.15,2013-02-12 03:46:00,
2013-02-11 22:52:00,35.4,29.2,29.60,NW,306,6.0,25.0,78,0.00,,,0.04,Wunderground v.1.15,2013-02-12 03:52:00,
2013-02-11 22:58:00,35.3,29.4,29.61,WNW,288,7.0,25.0,79,0.00,,,0.04,Wunderground v.1.15,2013-02-12 03:58:00,
2013-02-11 23:04:00,35.3,29.4,29.61,WNW,297,6.0,16.0,79,0.00,,,0.04,Wunderground v.1.15,2013-02-12 04:04:00,
2013-02-11 23:10:00,35.2,29.6,29.60,WNW,297,6.0,6.0,80,0.00,,,0.04,Wunderground v.1.15,2013-02-12 04:10:00,
2013-02-11 23:16:00,35.2,29.3,29.60,WNW,283,6.0,16.0,79,0.00,,,0.04,Wunderground v.1.15,2013-02-12 04:16:00,
2013-02-11 23:21:00,35.1,30.0,29.60,WNW,298,9.0,9.0,80,0.00,,,0.04,weatherlink.com 1.10,2013-02-12 04:21:00,
2013-02-11 23:28:00,35.2,29.6,29.60,WNW,286,7.0,16.0,80,0.00,,,0.04,Wunderground v.1.15,2013-02-12 04:28:00,
2013-02-11 23:34:00,35.2,29.3,29.60,WNW,302,7.0,16.0,79,0.00,,,0.04,Wunderground v.1.15,2013-02-12 04:34:00,
2013-02-11 23:40:00,35.3,29.4,29.60,NW,313,8.0,16.0,79,0.00,,,0.04,Wunderground v.1.15,2013-02-12 04:40:00,
2013-02-11 23:46:00,35.3,29.4,29.60,NW,317,10.0,16.0,79,0.00,,,0.04,Wunderground v.1.15,2013-02-12 04:46:00,
2013-02-11 23:52:00,35.2,29.3,29.60,West,281,10.0,16.0,79,0.00,,,0.04,Wunderground v.1.15,2013-02-12 04:52:00,
2013-02-11 23:58:00,35.2,29.3,29.60,WNW,292,10.0,16.0,79,0.00,,,0.04,Wunderground v.1.15,2013-02-12 04:58:00,